CAPE
0 0 0 0 0 0 0 0 0 0 0 0 0 0 0 0 0 0 0 0 0 0 0 0 0 0 0 0 0 0 0 0 0 0 0 0 0 0 0 0 0 0 0 0 0
0 0 0 0 0 0 0 0 0 0 0 0 0 0 0 0 0 0 0 0 0 0 0 0 0 0 0 0 0 0 0 0 0 0 0 0 0 0 0 0 0 0 0 0 0
0 0 0 0 0 0 0 0 0 0 0 0 0 0 0 0 0 0 0 0 0 0 0 0 0 0 0 0 0 0 0 0 0 0 0 0 0 0 0 0 0 0 0 0 0
0 0 0 0 0 0 0 0 0 0 0 0 0 0 0 0 0 0 0 0 0 0 0 0 0 0 0 0 0 0 0 0 0 0 0 0 0 0 0 0 0 0 0 0 0
0 0 0 0 0 0 0 0 0 0 0 0 0 0 0 0 0 0 0 0 0 0 0 0 0 0 0 0 0 0 0 0 0 0 0 0 0 0 0 0 0 0 0 0 0
0 0 0 0 0 0 0 0 0 0 0 0 0 0 0 0 0 0 0 0 0 0 0 0 0 0 0 0 0 0 0 0 0 0 0 0 0 0 0 0 0 0 0 0 0
0 0 0 0 0 0 0 0 0 0 0 0 0 0 0 0 0 0 0 0 0 0 0 0 0 0 0 0 0 0 0 0 0 0 0 0 0 0 0 0 0 0 0 0 0
0 0 0 0 0 0 0 0 0 0 0 0 0 0 0 0 0 0 0 0 0 0 0 0 0 0 0 0 0 0 0 0 0 0 0 0 0 0 0 0 0 0 0 0 0
0 0 0 0 0 0 0 0 0 0 0 0 0 0 0 0 0 0 0 0 0 0 0 0 0 0 0 0 0 0 0 0 0 0 0 0 0 0 0 0 0 0 0 0 0
0 0 0 0 0 0 0 0 0 0 0 0 0 0 0 0 0 0 0 0 0 0 0 0 0 0 0 0 0 0 0 0 0 0 0 0 0 0 0 0 0 0 0 0 0
0 0 0 0 0 0 0 0 0 0 0 0 0 0 0 0 0 0 0 0 0 0 0 0 0 0 0 0 0 0 0 0 0 0 0 0 0 0 0 0 0 0 0 0 0
0 0 0 0 0 0 0 0 0 0 0 0 0 0 0 0 0 0 0 0 0 0 0 0 0 0 0 0 0 0 0 0 0 0 0 0 0 0 0 0 0 0 0 0 0
0 0 0 0 0 0 0 0 0 0 0 0 0 0 0 0 0 0 0 0 0 0 0 0 0 0 0 0 0 0 0 0 0 0 0 0 0 0 0 0 0 0 0 0 0
0 0 0 0 0 0 0 0 0 0 0 0 0 0 0 0 0 0 0 0 0 0 0 0 0 0 0 0 0 0 0 0 0 0 0 0 0 0 0 0 0 0 0 0 0
0 0 0 0 0 0 0 0 0 0 0 0 0 0 0 0 0 0 0 0 0 0 0 0 0 0 0 0 0 0 0 0 0 0 0 0 0 0 0 0 0 0 0 0 0
0 0 0 0 0 0 0 0 0 0 0 0 0 0 0 0 0 0 0 0 0 0 0 0 0 0 0 0 0 0 0 0 0 0 0 0 0 0 0 0 0 0 0 0 0
0 1 0 0 0 0 0 0 0 0 0 0 0 0 0 0 0 0 0 0 0 0 0 0 0 0 0 0 0 0 0 0 0 0 0 0 0 0 0 0 0 0 0 0 0
0 0 0 0 0 0 0 0 0 0 0 0 0 0 0 0 0 0 0 0 0 0 0 0 0 0 0 0 0 0 0 0 0 0 0 0 0 0 0 0 0 0 0 0 0
0 0 1 0 0 0 1 1 0 0 0 0 0 0 0 0 0 0 0 0 0 0 0 0 0 0 0 0 0 0 0 0 0 0 0 0 0 0 0 0 0 0 0 0 0
0 4 11 0 0 0 4 0 0 0 0 0 0 0 0 0 0 0 0 0 0 0 0 0 0 0 0 0 0 0 0 0 0 0 0 0 0 0 0 0 0 0 0 0 0
0 0 0 0 0 2 8 4 6 0 3 18 7 7 0 0 7 2 5 0 0 0 0 0 0 0 0 0 0 0 0 0 0 0 0 0 0 0 0 0 0 0 0 0 0
0 0 0 1 0 4 6 0 1 0 2 24 26 19 18 3 3 39 26 10 2 19 20 13 16 2 0 0 0 0 0 0 0 0 0 0 0 0 0 0 0 0 0 0 0
0 0 1 1 6 16 5 3 11 0 1 24 41 23 18 8 34 12 0 0 37 41 17 1 3 11 0 0 0 0 0 0 0 0 0 0 0 0 0 0 0 0 0 0 0
0 0 10 19 12 6 5 3 8 7 16 29 12 24 8 18 1 9 1 0 0 4 5 5 14 27 10 0 0 0 0 0 0 0 0 0 0 0 0 0 0 0 0 0 0
0 0 0 1 6 8 3 2 1 0 26 46 22 28 24 38 1 2 4 0 0 0 0 1 2 9 1 6 3 9 1 0 1 0 0 0 9 1 12 0 0 0 0 0 0
0 0 0 0 0 2 4 2 3 0 2 4 30 2 12 5 19 0 0 0 0 0 0 0 0 2 0 0 0 0 0 0 0 0 0 0 0 0 0 0 0 0 0 0 0
0 1 2 0 0 0 0 1 3 0 0 5 0 2 9 2 0 1 0 0 0 0 0 1 3 3 0 0 0 0 0 0 0 0 0 0 0 0 0 0 0 0 0 0 0
CIN
0 0 0 0 0 0 0 0 0 0 0 0 0 0 0 0 0 0 0 0 0 0 0 0 0 0 0 0 0 0 0 0 0 0 0 0 0 0 0 0 0 0 0 0 0
0 0 0 0 0 0 0 0 0 0 0 0 0 0 0 0 0 0 0 0 0 0 0 0 0 0 0 0 0 0 0 0 0 0 0 0 0 0 0 0 0 0 0 0 0
0 0 0 0 0 0 0 0 0 0 0 0 0 0 0 0 0 0 0 0 0 0 0 0 0 0 0 0 0 0 0 0 0 0 0 0 0 0 0 0 0 0 0 0 0
0 0 0 0 0 0 0 0 0 0 0 0 0 0 0 0 0 0 0 0 0 0 0 0 0 0 0 0 0 0 0 0 0 0 0 0 0 0 0 0 0 0 0 0 0
0 0 0 0 0 0 0 0 0 0 0 0 0 0 0 0 0 0 0 0 0 0 0 0 0 0 0 0 0 0 0 0 0 0 0 0 0 0 0 0 0 0 0 0 0
0 0 0 0 0 0 0 0 0 0 0 0 0 0 0 0 0 0 0 0 0 0 0 0 0 0 0 0 0 0 0 0 0 0 0 0 0 0 0 0 0 0 0 0 0
0 0 0 0 0 0 0 0 0 0 0 0 0 0 0 0 0 0 0 0 0 0 0 0 0 0 0 0 0 0 0 0 0 0 0 0 0 0 0 0 0 0 0 0 0
0 0 0 0 0 0 0 0 0 0 0 0 0 0 0 0 0 0 0 0 0 0 0 0 0 0 0 0 0 0 0 0 0 0 0 0 0 0 0 0 0 0 0 0 0
0 0 0 0 0 0 0 0 0 0 0 0 0 0 0 0 0 0 0 0 0 0 0 0 0 0 0 0 0 0 0 0 0 0 0 0 0 0 0 0 0 0 0 0 0
0 0 0 0 0 0 0 0 0 0 0 0 0 0 0 0 0 0 0 0 0 0 0 0 0 0 0 0 0 0 0 0 0 0 0 0 0 0 0 0 0 0 0 0 0
0 0 0 0 0 0 0 0 0 0 0 0 0 0 0 0 0 0 0 0 0 0 0 0 0 0 0 0 0 0 0 0 0 0 0 0 0 0 0 0 0 0 0 0 0
0 0 0 0 0 0 0 0 0 0 0 0 0 0 0 0 0 0 0 0 0 0 0 0 0 0 0 0 0 0 0 0 0 0 0 0 0 0 0 0 0 0 0 0 0
0 0 0 0 0 0 0 0 0 0 0 0 0 0 0 0 0 0 0 0 0 0 0 0 0 0 0 0 0 0 0 0 0 0 0 0 0 0 0 0 0 0 0 0 0
0 0 0 0 0 0 0 0 0 0 0 0 0 0 0 0 0 0 0 0 0 0 0 0 0 0 0 0 0 0 0 0 0 0 0 0 0 0 0 0 0 0 0 0 0
0 0 0 0 0 0 0 0 0 0 0 0 0 0 0 0 0 0 0 0 0 0 0 0 0 0 0 0 0 0 0 0 0 0 0 0 0 0 0 0 0 0 0 0 0
0 0 0 0 0 0 0 0 0 0 0 0 0 0 0 0 0 0 0 0 0 0 0 0 0 0 0 0 0 0 0 0 0 0 0 0 0 0 0 0 0 0 0 0 0
0 0 0 0 0 0 0 0 0 0 0 0 0 0 0 0 0 0 0 0 0 0 0 0 0 0 0 0 0 0 0 0 0 0 0 0 0 0 0 0 0 0 0 0 0
0 0 0 0 0 0 0 0 -2 0 0 0 0 0 0 0 0 0 0 0 0 0 0 0 0 0 0 0 0 0 0 0 0 0 0 0 0 0 0 0 0 0 0 0 0
0 -1 -1 0 0 0 -1 -10 0 0 0 0 0 0 0 0 0 0 0 0 0 0 0 0 0 0 0 0 0 0 0 0 0 0 0 0 0 0 0 0 0 0 0 0 0
0 -1 -1 0 0 0 -15 0 0 0 0 0 0 0 0 0 0 0 0 0 0 0 0 0 0 0 0 0 0 0 0 0 0 0 0 0 0 0 0 0 0 0 0 0 0
0 0 0 0 0 0 -4 0 -2 -2 -2 -4 -6 -5 0 -1 -4 -3 -3 0 0 0 0 0 0 0 0 0 0 0 0 0 0 0 0 0 0 0 0 0 0 0 0 0 0
0 0 0 0 -1 -4 0 0 -1 0 -10 -5 -5 -3 -1 -6 -5 -32 -31 -4 -4 -16 -18 -40 -33 -41 0 0 0 0 0 0 0 0 0 0 0 0 0 0 0 0 0 0 0
0 0 0 -7 0 0 -1 -1 0 0 -3 -3 -2 -7 -9 -5 -1 -2 -1 -1 -6 -12 -8 -26 -26 -1 0 0 0 0 0 0 0 0 0 0 0 0 0 0 0 0 0 0 0
0 0 -4 -3 -2 -3 -1 -1 -3 -2 -2 -2 -2 -4 -3 -3 -1 -2 -1 0 0 -9 -11 -26 -2 -1 -13 0 0 0 0 0 0 -15 0 0 0 0 0 0 0 0 0 0 0
-1 -1 0 0 0 -1 -5 -1 -2 0 -3 -2 -7 -3 -2 -1 -14 -1 -1 0 0 0 0 -6 -4 -3 -5 -10 -2 0 0 0 -1 -2 -1 0 -11 -19 -18 0 0 0 0 0 0
0 0 -8 0 -11 -3 -1 0 0 0 -3 -1 -1 -15 -8 -5 -2 -11 0 0 0 0 0 0 0 0 0 0 0 0 0 0 0 0 0 0 0 0 0 0 0 0 0 0 0
0 -1 0 0 0 -1 0 -1 -3 -4 -1 -2 0 -6 -8 -15 0 0 0 0 0 0 0 0 0 -2 0 0 -2 0 0 0 0 0 0 0 0 0 0 0 0 0 0 0 0
Wind_Speed
22 23 24 24 25 25 25 25 25 25 24 25 25 25 25 24 20 14 10 8 10 7 11 11 12 12 13 14 13 14 17 18 17 16 17 17 16 15 15 13 13 9 9 14 14
24 25 25 26 27 27 27 27 27 27 26 26 26 26 26 25 19 16 10 8 7 6 9 9 11 12 15 14 14 14 18 18 15 16 19 20 19 19 17 16 17 14 12 14 10
25 26 27 27 28 28 28 28 28 28 28 28 27 27 28 22 24 17 12 7 5 4 10 10 13 14 18 17 16 16 19 19 19 18 22 24 24 20 19 17 17 17 15 13 11
26 26 27 28 30 30 30 30 30 29 29 29 29 29 27 19 24 15 12 9 6 6 8 11 13 18 20 20 18 23 19 20 22 22 25 27 26 23 16 14 23 17 18 17 14
27 28 29 30 31 32 32 32 32 31 31 30 29 29 21 22 20 18 13 10 9 7 8 11 14 19 22 21 22 22 25 24 23 25 25 27 26 24 17 16 23 17 16 16 16
28 29 30 31 32 33 34 34 34 34 33 31 29 27 22 27 19 13 11 11 12 10 13 12 18 17 24 24 23 26 28 30 29 27 28 28 22 26 22 33 22 21 15 13 13
29 30 31 32 34 34 36 36 37 36 34 30 27 23 23 17 20 16 14 17 15 15 17 17 17 17 20 25 25 27 34 36 27 32 27 24 20 17 22 32 25 26 22 16 13
29 30 32 33 34 36 38 38 37 37 34 27 22 21 29 24 22 20 19 21 19 17 19 21 18 21 22 24 26 32 32 36 34 25 25 22 22 37 30 29 29 28 27 20 17
29 30 31 33 35 37 39 39 36 28 23 18 20 23 32 22 23 20 16 19 18 19 19 19 19 21 23 25 34 30 33 29 35 26 27 24 27 23 35 33 34 29 28 24 30
28 29 31 32 35 37 39 35 23 22 20 20 22 26 26 24 20 20 17 15 20 18 21 20 22 23 23 24 32 32 33 33 33 33 32 32 28 26 41 41 30 28 29 39 49
28 29 30 32 34 36 33 26 28 28 24 25 24 25 25 23 21 22 18 18 19 21 24 23 25 25 23 24 26 31 34 36 35 35 42 36 33 28 30 28 37 30 29 32 28
27 28 30 32 33 31 26 25 26 26 36 29 29 29 28 25 29 24 17 23 24 27 25 28 30 24 29 29 29 32 35 39 42 39 40 35 39 35 28 31 29 39 32 31 31
28 28 29 30 31 25 25 25 23 24 34 37 29 30 29 26 31 29 18 23 26 29 27 31 33 28 27 30 34 33 35 39 42 43 40 51 51 32 26 21 22 24 22 21 24
28 29 28 30 27 25 26 24 24 24 41 39 30 25 21 19 23 18 14 19 22 30 30 33 31 28 29 32 27 38 32 38 40 42 49 35 65 34 34 22 29 16 19 18 40
31 30 27 26 28 28 25 23 21 25 46 28 23 19 18 18 19 21 18 22 30 29 27 33 34 32 32 31 27 39 32 33 36 39 44 35 41 44 34 44 30 30 22 35 40
28 27 23 26 26 23 20 21 24 33 42 30 24 25 24 25 27 26 26 23 24 32 32 37 34 33 35 34 29 30 33 33 35 35 45 36 37 65 35 30 28 33 45 42 45
27 25 20 23 28 18 18 24 36 39 30 33 30 27 28 29 29 27 28 29 32 39 43 42 39 35 31 38 33 31 35 43 43 39 48 34 36 42 40 44 42 45 46 44 43
30 26 22 24 21 16 22 28 41 36 36 33 32 35 39 34 36 34 35 41 35 38 44 48 58 35 27 29 36 34 32 40 51 56 59 43 56 57 45 44 44 43 37 37 43
32 28 28 24 20 21 26 40 45 40 38 40 40 43 43 36 34 36 39 43 39 34 44 47 54 37 34 30 30 38 42 39 49 47 55 58 60 59 51 46 34 32 34 40 43
32 32 33 22 15 23 34 46 44 38 37 37 46 39 47 39 40 41 42 39 40 34 33 39 52 42 38 35 36 36 32 46 41 54 61 49 56 59 54 51 46 43 43 41 43
28 35 28 15 16 29 47 47 49 43 40 43 46 46 48 50 47 49 46 43 39 38 34 35 41 51 47 48 54 47 49 47 47 49 63 65 56 45 54 47 44 47 47 45 43
28 41 23 13 33 37 50 42 39 50 37 42 44 48 51 52 52 49 47 46 40 39 44 41 45 55 63 49 43 44 47 44 51 57 55 60 59 42 47 47 49 57 58 53 50
32 34 23 21 45 46 42 45 44 48 45 40 42 39 41 50 56 51 51 41 38 40 39 37 46 61 55 48 40 41 43 44 49 55 64 70 68 47 54 56 55 53 51 51 50
30 39 33 32 39 45 48 50 50 42 45 42 44 41 44 49 45 47 48 40 38 41 42 41 48 53 63 54 55 60 56 56 52 56 60 59 58 53 56 58 64 53 46 42 42
27 35 32 41 43 45 45 46 53 53 41 37 40 42 45 48 48 50 48 45 39 39 38 38 54 53 58 55 53 57 60 61 62 60 61 60 63 60 59 53 52 50 47 48 49
32 34 33 40 39 42 43 49 52 54 48 53 52 51 48 48 44 47 42 41 42 35 38 37 52 54 60 58 56 61 57 54 54 55 60 61 67 46 43 45 47 43 45 48 50
27 29 34 39 40 43 46 45 44 42 42 39 41 44 46 42 35 36 37 39 40 44 45 45 47 50 65 57 57 67 58 57 58 54 56 58 42 41 44 43 44 38 43 46 49
Wind_Direction
322 320 319 318 320 321 323 323 323 324 327 326 327 327 327 330 343 357 358 13 20 52 21 24 17 11 4 355 357 360 342 338 343 348 352 358 356 358 359 354 357 3 352 352 1
320 319 317 317 319 321 322 323 323 324 324 326 327 327 327 330 343 339 349 3 12 52 10 5 355 357 345 345 346 337 330 331 342 341 337 339 339 338 339 338 332 333 331 338 346
318 318 318 319 318 318 318 319 321 321 320 322 324 323 323 338 329 339 12 23 27 36 351 354 349 341 327 330 327 327 318 324 324 327 328 327 326 331 329 327 325 324 323 320 315
318 319 318 318 317 317 317 317 317 317 318 319 319 319 324 340 318 347 0 11 21 6 347 334 331 323 319 317 320 314 314 315 319 321 321 319 322 321 320 298 323 319 323 319 304
314 314 314 313 313 313 312 311 311 312 313 315 317 319 330 322 316 332 341 348 347 342 319 316 313 314 311 316 316 308 311 313 314 315 315 316 312 314 296 299 317 315 318 313 304
310 310 310 309 309 309 308 307 305 305 306 309 312 316 320 309 326 338 342 335 326 319 313 310 313 310 312 310 307 313 312 311 313 312 311 309 301 316 257 315 319 320 313 304 295
309 309 309 308 307 307 305 303 301 301 304 308 312 316 310 303 320 322 320 316 314 313 308 311 311 313 319 315 315 313 310 311 313 312 312 313 298 273 261 314 315 315 316 308 281
308 308 308 307 307 306 304 303 302 302 304 310 314 313 302 315 315 308 306 307 311 308 307 310 310 306 306 314 314 310 311 308 311 320 320 315 290 261 313 311 311 313 315 307 290
310 311 310 310 309 307 305 303 305 313 317 320 315 309 304 318 310 310 309 307 309 309 310 312 309 302 305 305 304 308 302 303 307 313 313 305 303 296 310 311 308 307 305 297 265
312 313 313 313 311 309 307 309 318 320 322 319 313 308 306 309 316 317 314 310 307 308 307 304 303 297 301 299 295 301 304 305 306 315 311 306 285 294 304 307 299 291 294 265 267
310 313 313 314 316 315 318 319 311 309 307 299 305 304 312 313 315 310 314 307 307 302 295 299 291 284 280 284 290 300 300 299 303 308 306 300 292 288 273 278 267 275 288 271 281
309 312 313 314 316 320 326 319 317 314 303 301 297 295 300 310 303 304 309 298 294 290 295 295 280 281 295 295 293 294 296 298 302 306 305 300 270 302 295 271 273 265 264 263 262
304 307 311 314 317 323 322 322 325 323 305 302 302 301 300 299 294 296 293 297 294 291 286 279 293 297 290 291 295 291 293 298 301 309 306 305 269 302 309 303 281 283 285 300 268
302 301 306 312 311 316 314 324 325 324 301 302 304 311 315 311 309 316 310 301 300 296 295 294 299 293 292 292 293 293 299 300 302 306 303 312 279 310 313 301 314 293 323 325 299
298 299 302 307 306 308 314 324 327 322 295 309 308 327 325 312 319 318 316 304 294 295 299 297 301 301 295 294 297 297 305 302 303 301 302 303 303 310 319 312 322 321 326 319 307
299 301 300 301 304 310 320 322 314 299 287 301 310 309 307 305 305 309 308 308 308 299 295 294 299 298 299 301 296 304 304 303 301 300 293 296 300 273 312 318 325 320 315 313 309
307 302 293 299 299 314 317 312 296 283 299 299 302 306 305 303 303 304 301 298 297 300 297 298 296 298 297 296 299 297 297 297 294 290 289 301 293 276 301 307 308 312 313 315 317
306 304 294 292 297 306 306 296 283 288 287 297 299 300 296 298 297 297 297 294 295 296 297 297 293 295 300 293 297 294 290 287 291 290 290 294 286 289 303 305 307 308 312 318 321
303 300 294 288 287 292 290 279 280 285 287 289 293 293 293 295 294 297 294 294 295 290 290 294 290 297 295 297 295 295 288 293 288 289 290 287 288 292 296 300 306 310 311 314 322
299 295 289 293 280 281 278 275 281 282 290 292 287 289 288 290 292 293 293 296 298 295 294 296 292 295 297 299 293 290 299 291 292 291 288 290 288 290 295 295 297 301 305 310 318
299 292 298 286 279 277 272 279 280 285 285 287 286 284 284 288 287 288 290 292 295 295 293 295 292 288 293 289 289 290 286 287 290 286 287 288 286 291 293 296 294 297 300 304 307
294 285 300 280 276 279 274 281 286 283 289 285 287 282 284 285 286 286 284 286 294 291 290 292 293 288 287 293 293 290 289 290 287 289 287 286 284 289 293 293 293 294 296 295 302
290 289 297 285 276 276 282 282 282 282 284 288 284 286 289 286 287 286 286 291 291 292 293 299 292 290 293 293 294 289 290 289 288 288 284 285 287 292 293 290 291 296 298 297 300
295 288 287 279 278 279 280 280 281 285 284 284 285 286 287 286 286 289 288 297 297 294 295 297 287 284 285 292 296 291 293 294 292 289 288 285 290 291 291 290 293 299 304 305 306
295 289 291 286 281 279 280 284 282 283 285 289 288 284 287 287 288 288 290 292 295 298 298 290 285 288 289 293 293 293 294 292 288 286 284 287 289 292 293 296 297 298 302 302 302
293 292 293 287 289 286 283 279 281 283 285 283 283 287 287 286 288 287 293 293 293 297 296 295 291 293 289 290 292 292 292 292 294 297 293 294 294 305 303 304 302 302 303 304 303
302 298 295 289 288 285 284 284 286 290 289 287 290 289 286 289 293 295 294 291 290 292 292 292 292 293 288 292 296 289 291 293 293 298 296 293 299 307 306 303 304 303 308 307 306